Weather History for Fort Myers, FL

Change the Weather History Date:

Tuesday, April 16, 2013

  Actual Average Record
Temperature  
Mean Temperature 28 °C 23 °C  
Max Temperature 34 °C 29 °C 34 °C (2013)
Min Temperature 21 °C 17 °C 6 °C (1950)
Degree Days  
Heating Degree Days 0 0  
Month to date heating degree days 0 0  
Since 1 July heating degree days 201 284  
Cooling Degree Days 17 9  
Month to date cooling degree days 183 128  
Year to date cooling degree days 565 489  
Growing Degree Days 31 (Base 50)    
Moisture  
Dew Point 21 °C    
Average Humidity 75    
Maximum Humidity 97    
Minimum Humidity 39    
Precipitation  
Precipitation 0.00 mm 2.03 mm 6.71 mm (1933)
Month to date precipitation 1.44 1.21  
Year to date precipitation 4.70 8.18  
Sea Level Pressure  
Sea Level Pressure 1018 hPa    
Wind  
Wind Speed 11 km/h (East)    
Max Wind Speed 32 km/h    
Max Gust Speed 40 km/h    
Visibility 15 kilometers    
Events      
T = Trace of Precipitation, MM = Missing Value Source: NWS Daily Summary

Daily Weather History Graph

Daily Weather History Graph

Search for Another Location

Airport:

Trip Planner

Search our weather history database for the weather conditions in past years. The results will help you decide how hot, cold, wet, or windy it might be!

Date:

Astronomy

Apr. 16, 2013 Rise Set
Actual Time 7:02 AM EDT 7:52 PM EDT
Civil Twilight 6:38 AM EDT 8:15 PM EDT
Nautical Twilight 6:10 AM EDT 8:43 PM EDT
Astronomical Twilight 5:42 AM EDT 9:12 PM EDT
Moon 11:34 AM EDT (4/16) 12:33 AM EDT (4/16)
Length of Visible Light 13h 37m
Length of Day
12h 49m
Waxing Crescent, 33% of the Moon is Illuminated
Apr 16
Waxing Crescent
Apr 18
First Quarter
Apr 25
Full
May 2
Last Quarter
May 9
New

Hourly Weather History & Observations

Time (EDT) Temp. Heat Index Dew Point Humidity Pressure Visibility Wind Dir Wind Speed Gust Speed Precip Events Conditions
12:53 AM 23.3 °C - 20.6 °C 85% 1017.6 hPa 16.1 km Calm Calm - N/A   Clear
1:53 AM 22.8 °C - 20.6 °C 87% 1017.2 hPa 16.1 km Calm Calm - N/A   Clear
2:53 AM 22.8 °C - 20.6 °C 87% 1016.8 hPa 16.1 km Calm Calm - N/A   Clear
3:53 AM 21.7 °C - 20.6 °C 93% 1016.6 hPa 16.1 km Calm Calm - N/A   Clear
4:45 AM 22.0 °C - 21.0 °C 94% 1016.8 hPa 12.9 km East 5.6 km/h / 1.5 m/s - N/A   Scattered Clouds
4:53 AM 21.7 °C - 20.6 °C 93% 1017.0 hPa 12.9 km East 5.6 km/h / 1.5 m/s - N/A   Mostly Cloudy
5:15 AM 21.0 °C - 21.0 °C 100% 1016.8 hPa 14.5 km East 5.6 km/h / 1.5 m/s - N/A   Scattered Clouds
5:39 AM 22.0 °C - 21.0 °C 94% 1017.2 hPa 14.5 km East 7.4 km/h / 2.1 m/s - N/A   Mostly Cloudy
5:53 AM 21.7 °C - 20.6 °C 93% 1017.4 hPa 12.9 km East 11.1 km/h / 3.1 m/s - N/A   Overcast
6:46 AM 21.0 °C - 20.0 °C 94% 1017.8 hPa 14.5 km ENE 5.6 km/h / 1.5 m/s - N/A   Scattered Clouds
6:53 AM 21.1 °C - 20.0 °C 93% 1018.2 hPa 14.5 km NE 5.6 km/h / 1.5 m/s - N/A   Partly Cloudy
8:11 AM 22.0 °C - 21.0 °C 94% 1018.8 hPa 8.0 km East 9.3 km/h / 2.6 m/s - N/A   Mostly Cloudy
8:22 AM 22.0 °C - 21.0 °C 94% 1019.2 hPa 8.0 km East 9.3 km/h / 2.6 m/s - N/A   Overcast
8:53 AM 22.8 °C - 21.1 °C 90% 1019.6 hPa 9.7 km East 11.1 km/h / 3.1 m/s - N/A   Overcast
9:24 AM 24.0 °C - 22.0 °C 89% 1019.2 hPa 12.9 km ESE 11.1 km/h / 3.1 m/s - N/A   Scattered Clouds
9:53 AM 26.7 °C 28.6 °C 21.7 °C 74% 1019.5 hPa 16.1 km East 9.3 km/h / 2.6 m/s - N/A   Scattered Clouds
10:53 AM 28.9 °C 31.0 °C 20.6 °C 61% 1019.5 hPa 16.1 km East 14.8 km/h / 4.1 m/s - N/A   Clear
11:53 AM 29.4 °C 31.2 °C 20.0 °C 57% 1019.6 hPa 16.1 km ESE 11.1 km/h / 3.1 m/s - N/A   Clear
12:53 PM 31.1 °C 32.6 °C 19.4 °C 49% 1019.2 hPa 16.1 km ENE 9.3 km/h / 2.6 m/s - N/A   Partly Cloudy
1:53 PM 31.7 °C 33.4 °C 19.4 °C 48% 1018.5 hPa 16.1 km East 11.1 km/h / 3.1 m/s - N/A   Partly Cloudy
2:53 PM 32.8 °C 35.1 °C 20.0 °C 47% 1017.9 hPa 16.1 km Variable 7.4 km/h / 2.1 m/s - N/A   Scattered Clouds
3:53 PM 32.8 °C 33.9 °C 18.3 °C 42% 1017.0 hPa 16.1 km Variable 7.4 km/h / 2.1 m/s - N/A   Partly Cloudy
4:53 PM 33.9 °C 34.8 °C 17.8 °C 38% 1016.6 hPa 16.1 km Variable 11.1 km/h / 3.1 m/s - N/A   Partly Cloudy
5:53 PM 31.7 °C 34.5 °C 21.1 °C 53% 1017.2 hPa 16.1 km East 25.9 km/h / 7.2 m/s 37.0 km/h / 10.3 m/s N/A   Partly Cloudy
6:53 PM 29.4 °C 31.6 °C 20.6 °C 59% 1017.6 hPa 16.1 km East 24.1 km/h / 6.7 m/s 35.2 km/h / 9.8 m/s N/A   Mostly Cloudy
7:53 PM 27.8 °C 29.4 °C 20.0 °C 62% 1018.5 hPa 16.1 km ENE 20.4 km/h / 5.7 m/s 33.3 km/h / 9.3 m/s N/A   Clear
8:53 PM 26.7 °C 28.0 °C 19.4 °C 64% 1019.1 hPa 16.1 km East 14.8 km/h / 4.1 m/s 31.5 km/h / 8.7 m/s N/A   Partly Cloudy
9:53 PM 26.1 °C - 19.4 °C 66% 1019.6 hPa 16.1 km East 18.5 km/h / 5.1 m/s - N/A   Partly Cloudy
10:53 PM 25.6 °C - 19.4 °C 68% 1020.1 hPa 16.1 km East 18.5 km/h / 5.1 m/s - N/A   Overcast
11:53 PM 24.4 °C - 20.0 °C 76% 1020.2 hPa 16.1 km East 11.1 km/h / 3.1 m/s - N/A   Overcast